Regional Weather Roundup
Issued by NWS

Home | Current Version | Previous Version | Graphics & Text | Print | Product List | Glossary On
Versions: 1 2 3 4 5 6 7 8 9 10 11 12 13 14 15 16 17 18 19 20 21 22 23 24 25 26 27
000
ASUS45 KBOU 161706
RWRCO

WEATHER ROUNDUP FOR COLORADO
NATIONAL WEATHER SERVICE DENVER/BOULDER CO
1100 AM MDT WED APR 16 2014

NOTE: "FAIR" INDICATES FEW OR NO CLOUDS BELOW 12000 FEET WITH NO
SIGNIFICANT WEATHER AND/OR OBSTRUCTIONS TO VISIBILITY.

COZ001>005-013-030-031-161800-
...NORTHWEST COLORADO...

CITY           SKY/WX    TMP DP  RH WIND       PRES   REMARKS
CRAIG          SUNNY     44  13  28 W12       30.01R
HAYDEN         MOSUNNY   43  12  28 W15G22    30.02R
MEEKER         PTSUNNY   44  14  29 VRB3      30.00S
MOUNT WERNER   NOT AVBL
STEAMBOAT SPGS MOSUNNY   40   8  26 W13G18    29.99S
WALDEN         PTSUNNY   34  10  37 SE3       29.97S
$$

COZ006>008-011-161800-
...WEST CENTRAL VALLEYS...

CITY           SKY/WX    TMP DP  RH WIND       PRES   REMARKS
GRAND JUNCTION PTSUNNY   52  12  20 VRB5G18   29.96R
MONTROSE       CLOUDY    50  18  28 NW7       29.98R
EAGLE          MOSUNNY   45  14  29 CALM      30.00R
RIFLE          CLOUDY    48  15  26 VRB5      29.98S
DELTA          CLOUDY    54  25  32 CALM      29.96R
NUCLA            N/A     54  21  28 CALM      29.97S
$$

COZ017>023-064>068-161800-
...SOUTHWEST COLORADO...

CITY           SKY/WX    TMP DP  RH WIND       PRES   REMARKS
DURANGO        PTSUNNY   50   8  18 VRB3      29.92F
CORTEZ         SUNNY     58  13  17 SW3       29.91F
PAGOSA SPRINGS PTSUNNY   52  -1  11 SW7       29.94F
TELLURIDE      PTSUNNY   43  14  31 W3        29.99S
WOLF CREEK PAS NOT AVBL
$$

COZ009-010-012-014-032>034-037-058>063-161800-
...CENTRAL COLORADO...

CITY           SKY/WX    TMP DP  RH WIND       PRES   REMARKS
ASPEN          PTSUNNY   42  14  32 N9        29.97R
BUENA VISTA    MOSUNNY   51   8  17 W14G32    29.89S
COPPER MTN     MOSUNNY   27  18  69 W21       30.01R WCI  13
BERTHOUD PASS  FAIR      16   7  67 NW20      30.01R WCI  -1
COTTONWOOD PAS MOSUNNY   43   3  19 W15G38    29.92R
GUNNISON       PTSUNNY   46  18  31 W15G21    29.97R
KREMMLING      MOSUNNY   41  10  28 NW5       30.00S
LEADVILLE      PTSUNNY   34  12  40 NW10G16   29.97R WCI  26
SALIDA         MOSUNNY   58   9  14 SW20G28   29.95F
SUNLIGHT       CLOUDY    30  14  51 CALM      30.05R
WILKERSON PASS MOSUNNY   32  12  43 W8G21     29.99R WCI  25
$$

COZ069>075-161800-
...SAN LUIS VALLEY/SANGRE DE CRISTO MOUNTAINS...

CITY           SKY/WX    TMP DP  RH WIND       PRES   REMARKS
ALAMOSA        MOSUNNY   54  12  18 VRB3      29.91S
LA VETA PASS   MOSUNNY   45  12  26 SW6       30.00R
SAGUACHE       MOSUNNY   54  14  20 NW23G31   29.91S
$$

COZ035-036-038>040-161800-
...NORTHERN COLORADO FRONT RANGE...

CITY           SKY/WX    TMP DP  RH WIND       PRES   REMARKS
DENVER INTL AP MOSUNNY   51  19  28 N13G25    29.91R
DMNS CITY PARK   N/A     50  21  31 N8G23     29.90S
AURORA         MOSUNNY   50  23  34 N16G24    29.91S
FRONT RANGE AP MOSUNNY   52  19  28 N20G25    29.91R
ERIE MUNI ARPT SUNNY     51  22  31 NE14G20   29.91R
BOULDER MUN AP SUNNY     52  25  35 E17G23    29.89R
CENTENNIAL     MOSUNNY   48  22  35 N13       29.90R
BROOMFIELD     MOSUNNY   50  25  37 N14       29.91R
FORT COLLINS   SUNNY     52  23  32 N24G32    29.93S
LONGMONT       SUNNY     56  21  25 N9G16     29.90S
$$

COZ041-046-047-076>085-087-088-161800-
...PIKES PEAK/PALMER DIVIDE AND SOUTHERN FOOTHILLS...

CITY           SKY/WX    TMP DP  RH WIND       PRES   REMARKS
COLO. SPRINGS  PTSUNNY   53  17  24 N16G30    29.89R
A. F. ACADEMY  PTSUNNY   50  17  27 N20       29.88R
ELLICOTT       NOT AVBL
FALCON         PTSUNNY   47  20  33 N18G25    29.90S
FORT CARSON    PTSUNNY   54  22  28 N13       29.87R
LIMON          PTSUNNY   51  25  36 N28G38    29.91R
MONUMENT HILL  MOSUNNY   43  21  42 NE15G22   29.92R
TRINIDAD       PTSUNNY   53  26  35 E12       29.90R
$$

COZ042>045-048>051-090-091-161800-
...NORTHEAST COLORADO...

CITY           SKY/WX    TMP DP  RH WIND       PRES   REMARKS
GREELEY ARPT   SUNNY     52  23  32 N31G41    29.92R
AKRON          MOSUNNY   49  29  46 N30G40    29.90R
BURLINGTON     SUNNY     52  31  44 N28G37    29.89R
WRAY           MOSUNNY   55  31  41 NW20G40   29.88R
STERLING       MOSUNNY   52  32  46 N25G35    29.90R
HOLYOKE        MOSUNNY   54  32  43 NW29G38   29.88R
FORT MORGAN    MOSUNNY   51  27  38 N28G38    29.93R
$$

COZ086-089-092>099-161800-
...SOUTHEAST COLORADO...

CITY           SKY/WX    TMP DP  RH WIND       PRES   REMARKS
PUEBLO         PTSUNNY   58  22  24 N8        29.86R
LA JUNTA       SUNNY     60  22  23 N22       29.87R
LAMAR          SUNNY     61  23  23 N25G36    29.84R
SPRINGFIELD      N/A     55  27  34 NE18G28   29.89R
$$



USA.gov is the U.S. government's official web portal to all federal, state and local government web resources and services.